FW9002 Weather Reports


time (UTC)temp
F
wind
direction
speed
knots
gust
knots
rain 1hr
in
rain 24hr
in
rain mn
in
humidity
%
barometer
mb
20260503222433 91 284 2.6 2.6 0.00 0.00 0.00 13 1008.6
20260503221931 92 244 4.3 5.2 0.00 0.00 0.00 13 1009.0
20260503221429 93 207 3.5 4.3 0.00 0.00 0.00 13 1008.8
20260503220926 92 172 1.7 2.6 0.00 0.00 0.00 13 1008.8
20260503220422 92 119 0.9 0.9 0.00 0.00 0.00 13 1008.9
20260503215919 91 204 2.6 4.3 0.00 0.00 0.00 13 1009.0
20260503215416 90 249 4.3 6.1 0.00 0.00 0.00 14 1008.7
20260503214914 90 239 2.6 4.3 0.00 0.00 0.00 14 1008.9
20260503214411 90 171 3.5 5.2 0.00 0.00 0.00 14 1009.3
20260503213908 90 99 0.9 0.9 0.00 0.00 0.00 18 1009.2
20260503213406 89 84 0.0 0.9 0.00 0.00 0.00 20 1009.3
20260503212902 89 150 1.7 1.7 0.00 0.00 0.00 20 1009.6
20260503212400 89 113 0.9 0.9 0.00 0.00 0.00 22 1009.6
20260503211857 90 17 2.6 4.3 0.00 0.00 0.00 21 1009.6
20260503211354 90 221 0.0 0.0 0.00 0.00 0.00 22 1009.8
20260503210849 89 209 1.7 2.6 0.00 0.00 0.00 22 1010.0
20260503210347 88 110 0.0 0.0 0.00 0.00 0.00 23 1010.0
20260503205841 89 107 0.9 0.9 0.00 0.00 0.00 23 1010.1
20260503205338 89 226 0.0 0.0 0.00 0.00 0.00 22 1009.9
20260503204834 88 102 0.9 0.9 0.00 0.00 0.00 22 1010.2
20260503204332 87 256 2.6 2.6 0.00 0.00 0.00 22 1010.3
20260503203829 88 147 2.6 2.6 0.00 0.00 0.00 22 1010.4
20260503203327 87 114 0.9 0.9 0.00 0.00 0.00 23 1010.2
20260503202823 87 75 1.7 1.7 0.00 0.00 0.00 23 1010.6
20260503202322 87 109 1.7 2.6 0.00 0.00 0.00 24 1010.4
20260503201820 87 79 1.7 1.7 0.00 0.00 0.00 23 1010.6
20260503201316 87 102 0.0 0.0 0.00 0.00 0.00 24 1010.6
20260503200814 87 79 3.5 5.2 0.00 0.00 0.00 23 1010.7
20260503200309 87 103 1.7 1.7 0.00 0.00 0.00 23 1010.6
20260503195807 87 18 2.6 2.6 0.00 0.00 0.00 23 1011.2
20260503195304 87 154 2.6 2.6 0.00 0.00 0.00 22 1011.2
20260503194801 87 105 2.6 2.6 0.00 0.00 0.00 21 1011.1
20260503194256 86 132 0.0 0.9 0.00 0.00 0.00 22 1011.3
20260503193753 86 157 1.7 1.7 0.00 0.00 0.00 22 1011.2
20260503193249 86 137 5.2 7.0 0.00 0.00 0.00 22 1011.3
20260503192745 86 210 1.7 2.6 0.00 0.00 0.00 23 1011.3
20260503192240 85 92 3.5 6.1 0.00 0.00 0.00 25 1011.2
20260503191737 85 83 3.5 4.3 0.00 0.00 0.00 25 1011.3
20260503191234 85 164 2.6 2.6 0.00 0.00 0.00 26 1011.6
20260503190731 85 111 3.5 4.3 0.00 0.00 0.00 26 1011.7
20260503190228 85 157 1.7 1.7 0.00 0.00 0.00 27 1011.6
20260503185725 84 138 3.5 4.3 0.00 0.00 0.00 27 1011.6
20260503185220 84 138 1.7 2.6 0.00 0.00 0.00 27 1011.8
20260503184715 83 146 1.7 1.7 0.00 0.00 0.00 27 1012.0
20260503184212 83 113 3.5 4.3 0.00 0.00 0.00 28 1012.4
20260503183708 83 139 2.6 2.6 0.00 0.00 0.00 28 1012.2
20260503183206 83 176 1.7 1.7 0.00 0.00 0.00 28 1012.5
20260503182704 83 135 3.5 5.2 0.00 0.00 0.00 28 1012.5
20260503182202 82 110 2.6 2.6 0.00 0.00 0.00 28 1012.4
20260503181658 82 122 4.3 5.2 0.00 0.00 0.00 28 1012.7
20260503181155 83 129 4.3 5.2 0.00 0.00 0.00 28 1012.6
20260503180652 82 151 2.6 2.6 0.00 0.00 0.00 28 1012.7
20260503180150 82 151 5.2 6.1 0.00 0.00 0.00 28 1012.8
20260503175647 81 146 1.7 2.6 0.00 0.00 0.00 29 1013.0
20260503175144 81 90 3.5 5.2 0.00 0.00 0.00 29 1012.8
20260503174640 81 143 2.6 2.6 0.00 0.00 0.00 29 1013.0
20260503174137 82 201 1.7 2.6 0.00 0.00 0.00 29 1013.0
20260503173633 82 195 2.6 2.6 0.00 0.00 0.00 29 1013.1
20260503173130 82 161 1.7 1.7 0.00 0.00 0.00 28 1012.9
20260503172626 82 193 1.7 1.7 0.00 0.00 0.00 28 1013.2
20260503172124 82 118 2.6 2.6 0.00 0.00 0.00 29 1013.0
20260503171620 82 127 1.7 1.7 0.00 0.00 0.00 29 1013.3
20260503171117 82 177 2.6 2.6 0.00 0.00 0.00 29 1013.1
20260503170614 82 112 2.6 2.6 0.00 0.00 0.00 29 1013.1
20260503170111 81 113 3.5 4.3 0.00 0.00 0.00 29 1013.1
20260503151006 76 107 0.0 0.0 0.00 0.00 0.00 35 1013.3
20260503150503 76 134 0.9 0.9 0.00 0.00 0.00 35 1013.3
20260503131355 70 90 0.9 0.9 0.00 0.00 0.00 39 1012.6
20260503130853 70 76 0.9 0.9 0.00 0.00 0.00 39 1012.6
20260503130350 70 86 0.0 0.0 0.00 0.00 0.00 39 1012.4
20260503110744 74 135 3.5 4.3 0.00 0.00 0.00 34 1011.9
20260503110241 74 100 0.9 0.9 0.00 0.00 0.00 34 1012.0
20260503100207 75 127 0.9 1.7 0.00 0.00 0.00 33 1012.2
20260503090132 74 126 2.6 2.6 0.00 0.00 0.00 33 1012.2
20260503081602 75 93 1.7 2.6 0.00 0.00 0.00 32 1012.2
20260503081059 75 106 0.9 1.7 0.00 0.00 0.00 31 1012.2
20260503080555 76 131 0.9 0.9 0.00 0.00 0.00 31 1012.5
20260503072529 76 109 2.6 4.3 0.00 0.00 0.00 30 1012.7
20260503072026 77 107 0.9 0.9 0.00 0.00 0.00 30 1012.6
20260503071523 77 146 0.9 0.9 0.00 0.00 0.00 29 1012.7
20260503071020 77 116 4.3 7.0 0.00 0.00 0.00 29 1012.7
20260503070516 77 154 2.6 6.1 0.00 0.00 0.00 29 1013.0
20260503054940 78 86 1.7 1.7 0.00 0.00 0.00 28 1011.7
20260503054436 78 87 1.7 2.6 0.00 0.00 0.00 28 1011.7
20260503053934 78 90 0.9 0.9 0.00 0.00 0.00 28 1011.7
20260503053431 78 97 2.6 4.3 0.00 0.00 0.00 28 1011.8
20260503052927 79 86 3.5 5.2 0.00 0.00 0.00 28 1011.7
20260503052425 79 109 4.3 6.1 0.00 0.00 0.00 28 1011.8
20260503051921 79 104 4.3 5.2 0.00 0.00 0.00 28 1011.7
20260503051417 79 67 2.6 4.3 0.00 0.00 0.00 28 1011.8
20260503050915 79 54 2.6 5.2 0.00 0.00 0.00 27 1011.8
20260503050410 79 88 4.3 6.1 0.00 0.00 0.00 27 1011.8
20260503045908 79 70 1.7 1.7 0.00 0.00 0.00 27 1011.7
20260503045405 79 79 4.3 6.1 0.00 0.00 0.00 27 1011.6
20260503044902 79 84 6.1 7.8 0.00 0.00 0.00 27 1011.6
20260503044359 79 50 5.2 6.1 0.00 0.00 0.00 27 1011.9
20260503043856 79 57 2.6 4.3 0.00 0.00 0.00 26 1011.6
20260503043353 79 72 4.3 6.1 0.00 0.00 0.00 26 1011.6
20260503042849 79 61 4.3 7.0 0.00 0.00 0.00 26 1011.5
20260503042346 80 78 4.3 7.0 0.00 0.00 0.00 26 1011.3
20260503041842 80 87 4.3 6.1 0.00 0.00 0.00 26 1011.3
20260503041339 80 92 4.3 5.2 0.00 0.00 0.00 26 1010.9
20260503040837 80 67 5.2 6.1 0.00 0.00 0.00 25 1011.1
20260503040335 80 109 4.3 5.2 0.00 0.00 0.00 25 1010.9
20260503035831 80 46 3.5 5.2 0.00 0.00 0.00 25 1010.7
20260503035328 80 131 3.5 4.3 0.00 0.00 0.00 25 1010.6
20260503034826 80 28 4.3 5.2 0.00 0.00 0.00 25 1010.7
20260503034323 80 146 3.5 4.3 0.00 0.00 0.00 25 1010.6
20260503033820 80 53 4.3 5.2 0.00 0.00 0.00 25 1010.7
20260503033317 81 53 4.3 6.1 0.00 0.00 0.00 25 1010.6
20260503032815 81 43 2.6 2.6 0.00 0.00 0.00 24 1010.6
20260503032314 81 62 4.3 7.8 0.00 0.00 0.00 24 1010.7
20260503031811 81 80 1.7 1.7 0.00 0.00 0.00 24 1010.7
20260503031309 81 78 2.6 2.6 0.00 0.00 0.00 24 1010.7
20260503030805 81 54 1.7 1.7 0.00 0.00 0.00 24 1010.5
20260503030301 81 99 0.9 1.7 0.00 0.00 0.00 24 1010.5
20260503025758 81 55 3.5 4.3 0.00 0.00 0.00 24 1010.2
20260503025256 81 86 0.9 0.9 0.00 0.00 0.00 24 1010.4
20260503024752 82 91 0.0 0.9 0.00 0.00 0.00 23 1010.2
20260503024249 82 89 0.9 0.9 0.00 0.00 0.00 23 1010.3
20260503023746 82 57 0.9 1.7 0.00 0.00 0.00 23 1010.2
20260503023243 82 70 2.6 4.3 0.00 0.00 0.00 22 1010.1
20260503022739 83 91 2.6 2.6 0.00 0.00 0.00 22 1010.1
20260503022234 83 69 2.6 1.7 0.00 0.00 0.00 22 1010.3
20260503021731 83 136 3.5 5.2 0.00 0.00 0.00 22 1010.4
20260503021227 83 68 1.7 1.7 0.00 0.00 0.00 21 1010.0
20260503020725 84 80 0.9 0.9 0.00 0.00 0.00 21 1010.0
20260503020222 84 72 2.6 1.7 0.00 0.00 0.00 20 1010.1
20260503015719 84 113 0.9 2.6 0.00 0.00 0.00 20 1010.1
20260503015216 84 98 1.7 1.7 0.00 0.00 0.00 20 1010.2
20260503014711 85 78 0.9 0.9 0.00 0.00 0.00 20 1010.1
20260503014210 85 77 0.9 0.9 0.00 0.00 0.00 19 1010.1
20260503013706 85 94 0.9 0.9 0.00 0.00 0.00 19 1010.2
20260503013204 85 89 0.9 0.9 0.00 0.00 0.00 19 1010.2
20260503012701 85 131 0.0 0.9 0.00 0.00 0.00 19 1010.1
20260503012158 85 130 0.9 0.9 0.00 0.00 0.00 19 1010.2
20260503011654 86 138 0.9 0.9 0.00 0.00 0.00 19 1010.3
20260503011151 86 102 1.7 1.7 0.00 0.00 0.00 18 1010.3
20260503010647 86 116 2.6 2.6 0.00 0.00 0.00 18 1010.1
20260503010145 86 137 1.7 1.7 0.00 0.00 0.00 18 1010.2
20260503005642 86 82 0.0 0.0 0.00 0.00 0.00 18 1010.1
20260503005139 86 146 1.7 1.7 0.00 0.00 0.00 18 1010.1
20260503004635 87 124 2.6 2.6 0.00 0.00 0.00 18 1010.1
20260503004134 88 105 0.9 0.9 0.00 0.00 0.00 18 1010.0
20260503003631 88 86 0.9 0.9 0.00 0.00 0.00 18 1010.0
20260503003128 87 78 1.7 2.6 0.00 0.00 0.00 18 1010.0
20260503002625 87 128 1.7 1.7 0.00 0.00 0.00 18 1010.0
20260503002121 88 119 0.9 0.9 0.00 0.00 0.00 17 1010.0
20260503001617 88 103 1.7 1.7 0.00 0.00 0.00 17 1010.2
20260503001115 88 355 0.0 0.0 0.00 0.00 0.00 17 1010.0
20260503000612 88 192 1.7 1.7 0.00 0.00 0.00 17 1010.2
20260503000109 89 231 0.0 0.0 0.00 0.00 0.00 16 1010.1
20260502235606 89 200 2.6 2.6 0.00 0.00 0.00 16 1010.1
20260502235104 89 235 0.0 0.9 0.00 0.00 0.00 17 1010.2
20260502234559 88 223 2.6 2.6 0.00 0.00 0.00 16 1010.2
20260502234057 89 14 0.9 0.9 0.00 0.00 0.00 16 1010.1
20260502233557 90 96 1.7 1.7 0.00 0.00 0.00 15 1010.2
20260502233055 90 82 0.9 0.9 0.00 0.00 0.00 15 1010.3
20260502232551 90 86 0.9 0.9 0.00 0.00 0.00 15 1010.2
20260502232048 90 260 2.6 5.2 0.00 0.00 0.00 15 1010.3
20260502231545 89 324 0.9 0.9 0.00 0.00 0.00 16 1010.2
20260502231043 89 27 1.7 1.7 0.00 0.00 0.00 15 1010.4
20260502230541 90 52 0.9 0.9 0.00 0.00 0.00 14 1010.6
20260502230039 90 1 1.7 1.7 0.00 0.00 0.00 14 1010.4
20260502225534 89 170 0.0 0.0 0.00 0.00 0.00 14 1010.7
20260502225032 89 227 1.7 1.7 0.00 0.00 0.00 14 1010.9
20260502224528 90 138 4.3 6.1 0.00 0.00 0.00 15 1010.6
20260502224025 90 122 4.3 6.1 0.00 0.00 0.00 15 1010.6
20260502223523 90 207 0.9 0.9 0.00 0.00 0.00 15 1010.7
20260502223021 91 123 1.7 2.6 0.00 0.00 0.00 14 1010.5